Date String (YYYY-MM-DD hh:mm:ss) UTC,Instrument flags,Ambient pressure (hPa),Sample flow (lpm),Bypass flow (lpm),Sample temperature (°C),Ambient temperature (°C),ASC tube jacket temperature (°C),LED temperature (°C),Box temperature (°C),Sample RH (%),Span deviation,Mass concentration (μg/m³),Mass concentration (μg/m³),Mass concentration (μg/m³)
DateTimeUTC,F1_M11,P_M11,Q1_M11,Q2_M11,T1_M11,T2_M11,T3_M11,T4_M11,T5_M11,U1_M11,ZSPAN_M11,X2_M11,X0_M11,X1_M11
2022-03-20 11:00:00,,0819.9,4.99,0.00,24.0,23.0,00.0,33.0,25.6,07.6,0000.0,0004.53,0010.67,0002.52
2022-03-20 11:01:00,,0819.9,5.00,0.00,24.0,23.0,00.0,33.0,25.6,07.6,0000.0,0004.51,0010.64,0002.54
2022-03-20 11:02:00,,0819.9,5.01,0.00,24.0,23.0,00.0,33.0,25.6,07.8,0000.0,0004.50,0010.58,0002.55
2022-03-20 11:03:00,,0819.9,4.99,0.00,24.0,23.0,00.0,33.0,25.7,07.8,0000.0,0004.50,0010.65,0002.57
2022-03-20 11:04:00,,0819.9,4.99,0.00,24.0,23.0,00.0,33.0,25.7,07.8,0000.0,0004.56,0010.85,0002.59
2022-03-20 11:05:00,,0819.9,5.02,0.00,24.0,23.0,00.0,33.0,25.6,07.7,0000.0,0004.55,0010.98,0002.60
2022-03-20 11:06:00,,0819.9,5.00,0.00,23.9,23.0,00.0,33.0,25.6,07.7,0000.0,0004.58,0011.68,0002.62
2022-03-20 11:07:00,,0819.9,4.99,0.00,23.9,23.0,00.0,33.0,25.6,07.7,0000.0,0004.56,0011.87,0002.63
2022-03-20 11:08:00,,0819.9,5.00,0.00,23.9,23.0,00.0,33.0,25.6,07.7,0000.0,0004.54,0011.53,0002.66
2022-03-20 11:09:00,,0819.9,5.00,0.00,23.9,23.0,00.0,33.0,25.6,07.7,0000.0,0004.56,0011.57,0002.67
2022-03-20 11:10:00,,0819.9,5.00,0.00,23.9,23.0,00.0,33.0,25.6,07.7,0000.0,0004.53,0011.47,0002.66
2022-03-20 11:11:00,,0819.9,5.00,0.00,23.9,23.0,00.0,33.0,25.6,07.7,0000.0,0004.46,0011.51,0002.64
2022-03-20 11:12:00,,0819.9,5.01,0.00,23.9,23.0,00.0,32.9,25.6,07.7,0000.0,0004.47,0011.52,0002.64
2022-03-20 11:13:00,,0819.9,4.99,0.00,23.9,23.0,00.0,32.9,25.6,07.7,0000.0,0004.53,0011.88,0002.65
2022-03-20 11:14:00,,0819.9,5.01,0.00,23.9,23.0,00.0,32.9,25.6,07.7,0000.0,0004.46,0011.67,0002.64
2022-03-20 11:15:00,,0819.9,4.99,0.00,23.9,23.0,00.0,32.9,25.6,07.8,0000.0,0004.42,0011.48,0002.64
2022-03-20 11:16:00,,0819.9,4.99,0.00,23.9,23.0,00.0,32.9,25.6,07.8,0000.0,0004.36,0011.25,0002.63
2022-03-20 11:17:00,,0819.9,5.01,0.00,23.9,22.9,00.0,32.9,25.6,07.8,0000.0,0004.36,0010.75,0002.64
2022-03-20 11:18:00,,0819.9,5.01,0.00,23.9,22.9,00.0,32.9,25.5,08.0,0000.0,0004.36,0010.14,0002.63
2022-03-20 11:19:00,,0819.9,4.99,0.00,23.9,22.9,00.0,32.9,25.5,08.6,0000.0,0004.39,0010.23,0002.61
2022-03-20 11:20:00,,0819.9,4.99,0.00,23.9,22.9,00.0,32.9,25.5,08.7,0000.0,0004.44,0010.50,0002.61
2022-03-20 11:21:00,,0819.9,5.00,0.00,23.8,22.9,00.0,32.9,25.5,08.3,0000.0,0004.49,0011.28,0002.62
2022-03-20 11:22:00,,0819.9,4.99,0.00,23.8,22.9,00.0,32.9,25.5,08.5,0000.0,0004.51,0011.20,0002.63
2022-03-20 11:23:00,,0819.9,5.02,0.00,23.8,22.9,00.0,32.9,25.5,08.4,0000.0,0004.48,0011.08,0002.59
2022-03-20 11:24:00,,0819.9,5.00,0.00,23.8,22.8,00.0,32.9,25.5,08.6,0000.0,0004.42,0011.02,0002.58
2022-03-20 11:25:00,,0819.9,5.00,0.00,23.8,22.8,00.0,32.9,25.5,08.4,0000.0,0004.44,0011.52,0002.59
2022-03-20 11:26:00,,0819.9,5.01,0.00,23.8,22.8,00.0,32.9,25.5,08.4,0000.0,0004.46,0011.80,0002.58
2022-03-20 11:27:00,,0819.9,5.00,0.00,23.8,22.8,00.0,32.9,25.5,08.5,0000.0,0004.54,0012.10,0002.56
2022-03-20 11:28:00,,0819.9,5.00,0.00,23.8,22.8,00.0,32.8,25.5,08.5,0000.0,0004.53,0012.42,0002.55
2022-03-20 11:29:00,,0819.9,5.02,0.00,23.7,22.7,00.0,32.8,25.4,08.6,0000.0,0004.52,0012.56,0002.54
2022-03-20 11:30:00,,0819.9,5.00,0.00,23.7,22.7,00.0,32.8,25.4,08.3,0000.0,0004.47,0012.72,0002.54
2022-03-20 11:31:00,,0819.8,5.00,0.00,23.7,22.7,00.0,32.8,25.4,08.1,0000.0,0004.36,0013.23,0002.52
2022-03-20 11:32:00,,0819.9,4.99,0.00,23.7,22.7,00.0,32.8,25.4,08.0,0000.0,0004.29,0012.51,0002.51
2022-03-20 11:33:00,,0819.9,5.01,0.00,23.7,22.7,00.0,32.8,25.4,08.1,0000.0,0004.26,0012.26,0002.49
2022-03-20 11:34:00,,0819.9,4.99,0.00,23.7,22.7,00.0,32.8,25.4,07.9,0000.0,0004.30,0012.36,0002.51
2022-03-20 11:35:00,,0819.9,5.01,0.00,23.7,22.7,00.0,32.8,25.4,07.8,0000.0,0004.30,0012.82,0002.52
2022-03-20 11:36:00,,0819.9,4.98,0.00,23.7,22.7,00.0,32.8,25.4,08.0,0000.0,0004.31,0012.78,0002.53
2022-03-20 11:37:00,,0819.9,5.01,0.00,23.7,22.7,00.0,32.8,25.4,07.9,0000.0,0004.33,0012.93,0002.54
2022-03-20 11:38:00,,0819.9,4.99,0.00,23.7,22.7,00.0,32.8,25.4,07.8,0000.0,0004.30,0012.75,0002.55
2022-03-20 11:39:00,,0819.9,5.00,0.00,23.7,22.7,00.0,32.8,25.4,08.3,0000.0,0004.30,0012.43,0002.56
2022-03-20 11:40:00,,0819.9,5.01,0.00,23.7,22.7,00.0,32.8,25.4,08.4,0000.0,0004.29,0012.24,0002.55
2022-03-20 11:41:00,,0819.9,5.00,0.00,23.7,22.7,00.0,32.8,25.4,08.9,0000.0,0004.34,0012.12,0002.56
2022-03-20 11:42:00,,0819.9,4.99,0.00,23.7,22.7,00.0,32.7,25.4,09.3,0000.0,0004.42,0011.30,0002.56
2022-03-20 11:43:00,,0819.9,5.01,0.00,23.7,22.7,00.0,32.7,25.4,08.9,0000.0,0004.47,0011.42,0002.54
2022-03-20 11:44:00,,0819.9,5.00,0.00,23.7,22.7,00.0,32.7,25.4,08.3,0000.0,0004.50,0011.68,0002.52
2022-03-20 11:45:00,,0819.9,4.99,0.00,23.7,22.7,00.0,32.7,25.4,08.1,0000.0,0004.45,0011.49,0002.50
2022-03-20 11:46:00,,0819.9,5.00,0.00,23.7,22.7,00.0,32.7,25.3,08.1,0000.0,0004.46,0010.78,0002.49
2022-03-20 11:47:00,,0820.0,4.99,0.00,23.7,22.7,00.0,32.7,25.4,08.0,0000.0,0004.41,0010.27,0002.48
2022-03-20 11:48:00,,0820.0,5.00,0.00,23.7,22.7,00.0,32.7,25.4,08.7,0000.0,0004.36,0009.77,0002.45
2022-03-20 11:49:00,,0820.0,5.01,0.00,23.7,22.7,00.0,32.7,25.4,08.8,0000.0,0004.35,0009.86,0002.46
2022-03-20 11:50:00,,0819.9,5.00,0.00,23.6,22.7,00.0,32.7,25.4,08.3,0000.0,0004.36,0009.94,0002.45
2022-03-20 11:51:00,,0819.9,4.99,0.00,23.6,22.7,00.0,32.7,25.3,08.9,0000.0,0004.39,0009.96,0002.44
2022-03-20 11:52:00,,0819.9,5.01,0.00,23.6,22.7,00.0,32.7,25.3,08.9,0000.0,0004.34,0010.03,0002.43
2022-03-20 11:53:00,,0819.9,5.00,0.00,23.6,22.7,00.0,32.7,25.4,08.7,0000.0,0004.29,0009.93,0002.43
2022-03-20 11:54:00,,0819.9,4.99,0.00,23.6,22.7,00.0,32.7,25.4,08.3,0000.0,0004.25,0009.80,0002.45
2022-03-20 11:55:00,,0819.9,5.00,0.00,23.7,22.7,00.0,32.7,25.4,08.3,0000.0,0004.24,0009.67,0002.48
2022-03-20 11:56:00,,0819.9,5.01,0.00,23.6,22.7,00.0,32.7,25.4,08.3,0000.0,0004.33,0010.02,0002.49
2022-03-20 11:57:00,,0819.9,4.99,0.00,23.7,22.7,00.0,32.7,25.4,08.0,0000.0,0004.34,0010.10,0002.50
2022-03-20 11:58:00,,0819.9,5.00,0.00,23.7,22.7,00.0,32.7,25.4,08.0,0000.0,0004.43,0010.40,0002.52
2022-03-20 11:59:00,,0820.0,5.00,0.00,23.7,22.7,00.0,32.7,25.4,07.9,0000.0,0004.45,0010.40,0002.52
